Kansas City International, MO

11:08 PM CDT on June 24, 2017 (GMT -0500)
Kansas City International

Weather History for KMCI - October, 2011

Change the Weather History Date:

Wednesday, October 5, 2011

  Actual Average Record
Temperature  
Mean Temperature 68 °F 60 °F  
Max Temperature 84 °F 71 °F 97 °F (1963)
Min Temperature 52 °F 49 °F 34 °F (1988)
Degree Days  
Heating Degree Days 0 6  
Month to date heating degree days 16 29  
Since 1 July heating degree days 111 96  
Cooling Degree Days 3 2  
Month to date cooling degree days 8 10  
Year to date cooling degree days 1557 1342  
Growing Degree Days 18 (Base 50)    
Moisture  
Dew Point 43 °F    
Average Humidity 48    
Maximum Humidity 77    
Minimum Humidity 18    
Precipitation  
Precipitation 0.00 in 0.12 in 2.90 in (1967)
Month to date precipitation 0.00 0.62  
Year to date precipitation 28.78 32.64  
Snow  
Snow 0.00 in 0.00 in 0.00 in ()
Month to date snowfall 0.0 0.0  
Since 1 July snowfall 0.0 0.0  
Since 1 September snowfall 0.0 0.0  
Snow Depth 0.00 in    
Sea Level Pressure  
Sea Level Pressure 30.10 in    
Wind  
Wind Speed 11 mph (South)    
Max Wind Speed 20 mph    
Max Gust Speed 23 mph    
Visibility 10 miles    
Events      
T = Trace of Precipitation, MM = Missing Value Source: NWS Daily Summary

Daily Weather History Graph

Daily Weather History Graph

Search for Another Location

Airport or City:

Trip Planner

Search our weather history database for the weather conditions in past years. The results will help you decide how hot, cold, wet, or windy it might be!

Date:

Astronomy

Oct. 05, 2011 Rise Set
Actual Time 7:18 AM CDT 6:55 PM CDT
Civil Twilight 6:51 AM CDT 7:22 PM CDT
Nautical Twilight 6:20 AM CDT 7:53 PM CDT
Astronomical Twilight 5:49 AM CDT 8:24 PM CDT
Moon 3:34 PM CDT (10/5) 1:08 AM CDT (10/5)
Length of Visible Light 12h 30m
Length of Day
11h 36m
Waxing Gibbous, 66% of the Moon is Illuminated
Oct 5
Waxing Gibbous
Oct 11
Full
Oct 19
Last Quarter
Oct 26
New
Nov 2
First Quarter

Hourly Weather History & Observations

Time (CDT) Temp. Dew Point Humidity Pressure Visibility Wind Dir Wind Speed Gust Speed Precip Events Conditions
12:53 AM 57.9 °F 45.0 °F 62% 30.12 in 10.0 mi South 8.1 mph - N/A   Clear
1:53 AM 57.9 °F 46.0 °F 65% 30.12 in 10.0 mi South 10.4 mph - N/A   Clear
2:53 AM 55.9 °F 45.0 °F 67% 30.12 in 10.0 mi South 9.2 mph - N/A   Clear
3:53 AM 55.9 °F 46.0 °F 69% 30.12 in 10.0 mi South 8.1 mph - N/A   Clear
4:53 AM 55.9 °F 46.0 °F 69% 30.12 in 10.0 mi SSE 6.9 mph - N/A   Clear
5:53 AM 53.1 °F 45.0 °F 74% 30.13 in 10.0 mi SSE 9.2 mph - N/A   Clear
6:53 AM 53.1 °F 46.0 °F 77% 30.15 in 10.0 mi SSE 10.4 mph - N/A   Clear
7:53 AM 55.0 °F 46.9 °F 74% 30.15 in 8.0 mi South 10.4 mph - N/A   Clear
8:53 AM 62.1 °F 46.0 °F 56% 30.15 in 10.0 mi South 12.7 mph - N/A   Clear
9:53 AM 68.0 °F 44.1 °F 42% 30.15 in 10.0 mi South 12.7 mph - N/A   Clear
10:53 AM 73.0 °F 44.1 °F 35% 30.15 in 10.0 mi SSW 11.5 mph - N/A   Clear
11:53 AM 77.0 °F 43.0 °F 30% 30.13 in 10.0 mi South 12.7 mph - N/A   Clear
12:53 PM 79.0 °F 43.0 °F 28% 30.11 in 9.0 mi SSW 10.4 mph - N/A   Partly Cloudy
1:53 PM 82.0 °F 41.0 °F 23% 30.08 in 10.0 mi South 10.4 mph - N/A   Partly Cloudy
2:53 PM 82.9 °F 39.9 °F 22% 30.06 in 9.0 mi South 17.3 mph 21.9 mph N/A   Partly Cloudy
3:53 PM 82.9 °F 37.0 °F 19% 30.05 in 10.0 mi SSE 11.5 mph - N/A   Partly Cloudy
4:53 PM 82.4 °F 35.6 °F 19% 30.05 in 10.0 mi SSE 16.1 mph - N/A   Scattered Clouds
5:53 PM 78.8 °F 37.4 °F 23% 30.05 in 10.0 mi South 10.4 mph - N/A   Scattered Clouds
6:53 PM 68.0 °F 41.0 °F 37% 30.03 in 10.0 mi SSE 6.9 mph - N/A   Scattered Clouds
7:53 PM 66.2 °F 41.0 °F 40% 30.05 in 10.0 mi SSE 8.1 mph - N/A   Clear
8:53 PM 64.4 °F 42.8 °F 45% 30.06 in 10.0 mi SSE 10.4 mph - N/A   Scattered Clouds
9:53 PM 66.0 °F 43.0 °F 43% 30.06 in 10.0 mi South 10.4 mph - N/A   Scattered Clouds
10:53 PM 64.0 °F 43.0 °F 46% 30.06 in 10.0 mi SSE 9.2 mph - N/A   Clear
11:53 PM 66.0 °F 44.1 °F 45% 30.06 in 10.0 mi SSE 11.5 mph - N/A   Clear